GW0883 Weather Reports


Display with metric or nautical units.
time (UTC)temp
F
wind
direction
speed
MPH
gust
MPH
rain 1hr
in
rain 24hr
in
rain mn
in
humidity
%
barometer
mb
20260904223307 0 0 0.0 0.0 0.00 0.00 0.00 100
20260904221308 0 0 0.0 0.0 0.00 0.00 0.00 100
20260904220405 0 0 0.0 0.0 0.00 0.00 0.00 100
20260904215416 74 270 1.0 1.0 0.00 0.00 0.00 56 1011.4
20260904213419 78 67 0.0 0.0 0.00 0.00 0.00 55 1011.4
20260904212417 78 315 0.0 0.0 0.00 0.00 0.00 55 1011.1
20260904211415 78 22 1.0 1.0 0.00 0.00 0.00 55 1011.2
20260904210415 79 315 0.0 0.0 0.00 0.00 0.00 55 1011.2
20260904204415 80 312 0.0 0.0 0.00 0.00 0.00 55 1011.1
20260904202514 81 237 0.0 0.0 0.00 0.00 0.00 55 1011.3
20260904201533 80 270 0.0 0.0 0.00 0.00 0.00 54 1011.2
20260904200615 80 202 0.0 0.0 0.00 0.00 0.00 54 1011.3
20260904195614 81 67 4.0 4.0 0.00 0.00 0.00 54 1011.2
20260904194615 82 62 3.0 6.0 0.00 0.00 0.00 55 1011.2
20260904193714 80 202 0.0 0.0 0.00 0.00 0.00 55 1011.1
20260904191716 81 360 2.0 2.0 0.00 0.00 0.00 56 1011.0
20260904190730 82 198 2.0 4.0 0.00 0.00 0.00 57 1011.1
20260904185714 82 93 2.0 4.0 0.00 0.00 0.00 59 1011.3
20260904184814 82 62 5.0 6.0 0.00 0.00 0.00 58 1011.2
20260904183913 82 217 3.0 4.0 0.00 0.00 0.00 60 1011.5
20260904182915 82 225 2.0 4.0 0.00 0.00 0.00 61 1011.4
20260904181914 82 49 2.0 3.0 0.00 0.00 0.00 61 1011.4
20260904181014 80 0 0.0 0.0 0.00 0.00 0.00 61 1011.4
20260904174114 80 90 3.0 7.0 0.00 0.00 0.00 64 1011.5
20260904173213 81 45 0.0 0.0 0.00 0.00 0.00 64 1011.7
20260904172216 81 211 2.0 3.0 0.00 0.00 0.00 66 1011.5
20260904171215 81 146 3.0 4.0 0.00 0.00 0.00 66 1011.5
20260904170313 82 146 1.0 3.0 0.00 0.00 0.00 67 1011.8
20260904165329 82 202 2.0 2.0 0.00 0.00 0.00 68 1011.7
20260904163513 78 112 2.0 2.0 0.00 0.00 0.00 70 1011.8
20260904162517 78 45 0.0 0.0 0.00 0.00 0.00 70 1011.8
20260904161513 80 180 1.0 1.0 0.00 0.00 0.00 71 1011.9
20260904154614 80 112 0.0 0.0 0.00 0.00 0.00 75 1012.3
20260904153614 80 67 3.0 3.0 0.00 0.00 0.00 76 1012.3
20260904152713 79 126 0.0 1.0 0.00 0.00 0.00 79 1012.5
20260904151718 79 56 1.0 2.0 0.00 0.00 0.00 79 1012.5
20260904144912 78 45 4.0 4.0 0.00 0.00 0.00 85 1012.5
20260904143912 79 348 3.0 4.0 0.00 0.00 0.00 85 1012.4
20260904142916 77 45 1.0 1.0 0.00 0.00 0.00 87 1012.6
20260904141012 77 93 0.0 2.0 0.00 0.00 0.00 91 1012.8
20260904140013 77 112 2.0 4.0 0.00 0.00 0.00 93 1012.8
20260904135014 0 0 0.0 0.0 0.00 0.00 0.00 100
20260904134111 75 112 1.0 1.0 0.00 0.00 0.00 94 1012.7
20260904133112 73 45 0.0 0.0 0.00 0.00 0.00 94 1012.9
20260904131311 71 315 2.0 2.0 0.00 0.00 0.00 95 1012.9
20260904130313 70 225 0.0 0.0 0.00 0.00 0.00 95 1012.9
20260904125312 70 270 0.0 0.0 0.00 0.00 0.00 95 1013.2
20260904124311 0 0 0.0 0.0 0.00 0.00 0.00 100
20260904123311 0 0 0.0 0.0 0.00 0.00 0.00 100
20260904122327 0 0 0.0 0.0 0.00 0.00 0.00 100
20260904121314 0 0 0.0 0.0 0.00 0.00 0.00 100
20260904120313 0 0 0.0 0.0 0.00 0.00 0.00 100
20260904114327 0 0 0.0 0.0 0.00 0.00 0.00 100
20260904113313 0 0 0.0 0.0 0.00 0.00 0.00 100
20260904112312 0 0 0.0 0.0 0.00 0.00 0.00 100
20260904111411 0 0 0.0 0.0 0.00 0.00 0.00 100
20260904110429 0 0 0.0 0.0 0.00 0.00 0.00 100
20260904105511 0 0 0.0 0.0 0.00 0.00 0.00 100
20260904104512 0 0 0.0 0.0 0.00 0.00 0.00 100
20260904103511 0 0 0.0 0.0 0.00 0.00 0.00 100
20260904102512 0 0 0.0 0.0 0.00 0.00 0.00 100
20260904100521 0 0 0.0 0.0 0.00 0.01 0.00 100
20260904095515 0 0 0.0 0.0 0.00 0.02 0.00 100
20260904094614 0 0 0.0 0.0 0.00 0.03 0.00 100
20260904094531 0 0 0.0 0.0 0.00 0.03 0.00 100
20260904093614 0 0 0.0 0.0 0.00 0.03 0.00 100
20260904091615 0 0 0.0 0.0 0.00 0.03 0.00 100
20260904090714 0 0 0.0 0.0 0.00 0.03 0.00 100
20260904085715 0 0 0.0 0.0 0.00 0.03 0.00 100
20260904083812 0 0 0.0 0.0 0.00 0.03 0.00 100
20260904082813 0 0 0.0 0.0 0.00 0.03 0.00 100
20260904082714 0 0 0.0 0.0 0.00 0.03 0.00 100
20260904081713 0 0 0.0 0.0 0.00 0.03 0.00 100
20260904074716 0 0 0.0 0.0 0.00 0.05 0.00 100
20260904073716 0 0 0.0 0.0 0.00 0.05 0.00 100
20260904072714 63 225 0.0 0.0 0.00 0.05 0.00 93 1013.3
20260904071813 0 0 0.0 0.0 0.00 0.05 0.00 100
20260904070813 64 247 0.0 0.0 0.00 0.05 0.00 93 1013.2
20260904065814 0 0 0.0 0.0 0.00 0.05 0.00 100
20260904064912 0 0 0.0 0.0 0.00 0.05 0.00 100
20260904063914 64 247 0.0 0.0 0.00 0.05 0.00 92 1013.2
20260904063012 64 247 0.0 0.0 0.00 0.05 0.00 92 1013.3
20260904062013 0 0 0.0 0.0 0.00 0.05 0.00 100
20260904061011 0 0 0.0 0.0 0.00 0.05 0.00 100
20260904060109 63 247 0.0 0.0 0.00 0.05 0.00 92 1013.6
20260904055110 0 0 0.0 0.0 0.00 0.05 0.00 100
20260904054206 63 247 0.0 0.0 0.00 0.05 0.00 93 1014.0
20260904053224 63 247 0.0 0.0 0.00 0.05 0.00 92 1014.1
20260904052307 63 67 0.0 0.0 0.00 0.05 0.00 92 1014.1
20260904051308 63 270 0.0 0.0 0.00 0.05 0.00 91 1014.0
20260904050309 63 270 0.0 0.0 0.00 0.05 0.00 91 1014.1
20260904045309 63 270 0.0 0.0 0.00 0.05 0.00 91 1014.1
20260904044407 63 270 0.0 0.0 0.00 0.05 0.00 92 1014.3
20260904043410 63 270 0.0 0.0 0.00 0.05 0.00 92 1014.1
20260904041407 64 270 0.0 0.0 0.00 0.05 0.00 91 1014.3
20260904040406 64 270 0.0 0.0 0.00 0.05 0.00 91 1014.2
20260904035415 65 270 0.0 0.0 0.00 0.05 0.05 91 1014.4
20260904034515 65 270 0.0 0.0 0.00 0.05 0.05 90 1014.4
20260904033515 66 270 0.0 0.0 0.00 0.05 0.05 90 1014.5
20260904032513 66 270 0.0 0.0 0.00 0.05 0.05 90 1014.5
20260904031517 65 270 0.0 0.0 0.00 0.05 0.05 90 1014.5
20260904030514 65 270 0.0 0.0 0.00 0.05 0.05 91 1014.5
20260904025613 66 270 0.0 0.0 0.00 0.05 0.05 89 1014.6
20260904025513 66 270 0.0 0.0 0.00 0.05 0.05 89 1014.6
20260904024514 66 270 0.0 0.0 0.00 0.05 0.05 89 1014.5
20260904023515 66 270 0.0 0.0 0.00 0.05 0.05 89 1014.8
20260904021516 0 0 0.0 0.0 0.00 0.05 0.00 100
20260904020512 0 0 0.0 0.0 0.00 0.05 0.00 100
20260904015516 0 0 0.0 0.0 0.00 0.05 0.00 100
20260904013518 0 0 0.0 0.0 0.00 0.05 0.00 100
20260904012516 0 0 0.0 0.0 0.00 0.05 0.00 100
20260904011517 0 0 0.0 0.0 0.00 0.05 0.00 100
20260904010518 0 0 0.0 0.0 0.00 0.05 0.00 100
20260904005518 0 0 0.0 0.0 0.00 0.05 0.00 100
20260904004616 0 0 0.0 0.0 0.00 0.05 0.00 100
20260904003617 0 0 0.0 0.0 0.00 0.05 0.00 100
20260904002616 0 0 0.0 0.0 0.00 0.05 0.00 100
20260904000618 0 0 0.0 0.0 0.00 0.05 0.00 100
20260903235715 0 0 0.0 0.0 0.00 0.05 0.00 100
20260903234717 0 0 0.0 0.0 0.00 0.05 0.00 100
20260903232717 0 0 0.0 0.0 0.00 0.05 0.00 100
20260903231718 0 0 0.0 0.0 0.00 0.05 0.00 100
20260903230717 0 0 0.0 0.0 0.00 0.05 0.00 100
20260903224716 0 0 0.0 0.0 0.00 0.05 0.00 100